Home > Time Zones > World Clock > Weather > U.S.A. > Waco > Past weeks

Flag for U.S.A. Weather past 2 weeks in Waco, Texas, U.S.A.

Now
87 °F

Clear.


Feels Like: 90 °F
Forecast: 76 / 97 °F
Wind: 12 mph from Southeast

Location: Waco Regional Airport

Current Time: Jul 27, 2015 at 11:30:07 PM

Latest Report: Jul 27, 2015 at 10:51 PM


Visibility: 10 mi

Pressure: 29.89 "Hg

Humidity: 51%

Dew point: 67 °F

Location of WacoLocation

Historic Weather in Waco — Graph

°F

Waco temperature yesterday

Maximum temperature yesterday: 97 °F (at 2:51 PM)
Minimum temperature yesterday: 75 °F (at 6:51 AM)
Average temperature yesterday: 87 °F

Past Weeks' High & Low Weather Summary

 TemperatureHumidityPressure
High98 °F (Jul 23, 3:51 PM)91% (Jul 16, 6:51 AM)30.03 "Hg (Jul 16, 6:51 AM)
Low73 °F (Jul 15, 6:51 AM)33% (Jul 25, 5:51 PM)29.78 "Hg (Jul 21, 6:51 PM)
Average86 °F60%29.90 "Hg
* Reported Jul 12 9:51 PM — Jul 27 9:51 PM, Waco, Weather by CustomWeather, © 2015

Note: Actual official high and low records may vary slightly from our data, if they occured in-between our weather recording intervals... More about our weather records

Advertising

Waco weather history for previous 24 hours

 ConditionsComfort  
Time TempWeatherWind HumidityBarometerVisibility
9:51 PM
Mon, Jul 27
89 °FClear.9 mph46%29.87 "Hg10 mi
8:51 PM91 °FSunny.12 mph44%29.84 "Hg10 mi
7:51 PM93 °FSunny.15 mph41%29.83 "Hg10 mi
6:51 PM96 °FSunny.14 mph36%29.82 "Hg10 mi
5:51 PM97 °FSunny.13 mph34%29.83 "Hg10 mi
3:51 PM98 °FSunny.12 mph34%29.85 "Hg10 mi
2:51 PM97 °FSunny.12 mph37%29.88 "Hg10 mi
1:51 PM96 °FSunny.12 mph40%29.90 "Hg10 mi
12:51 PM95 °FSunny.13 mph43%29.91 "Hg10 mi
11:51 AM92 °FSunny.10 mph52%29.93 "Hg10 mi
10:51 AM88 °FSunny.10 mph63%29.93 "Hg10 mi
9:51 AM85 °FSunny.9 mph70%29.94 "Hg9 mi
8:51 AM82 °FSunny.10 mph77%29.93 "Hg8 mi
7:51 AM80 °FSunny.9 mph81%29.92 "Hg8 mi
6:51 AM78 °FClear.10 mph87%29.90 "Hg8 mi
5:51 AM79 °FClear.9 mph84%29.88 "Hg10 mi
4:51 AM80 °FClear.9 mph79%29.88 "Hg10 mi
3:51 AM79 °FClear.9 mph79%29.87 "Hg10 mi
2:51 AM81 °FClear.7 mph72%29.86 "Hg10 mi
1:51 AM84 °FClear.13 mph63%29.86 "Hg10 mi
12:51 AM83 °FClear.8 mph65%29.86 "Hg10 mi
11:51 PM
Sun, Jul 26
86 °FClear.9 mph59%29.86 "Hg10 mi
Weather by CustomWeather, © 2015

See weather overviewHow to use our weather pages